User: anonymous
Location: Unspecified
(0.0000°N, 0.0000°E)
Time: 11:53:58
(UTC+00:00)
Language:

AMOS 1 - Orbit

View from above orbital plane
View from above orbital plane
View from above satellite
View from above satellite

Ground track
Ground track

The orbit data is extracted from the following two-line orbital elements,

1 23865U 96030B   14203.95935721 -.00000160  00000-0  00000+0 0  1262
2 23865 005.1286 062.0000 0013716 076.4564 280.8795 00.97118139 66354
Epoch (UTC): 22 July 2014 23:01:28
Eccentricity: 0.0013716
inclination: 5.1286°
perigee height: 36635 km
apogee height: 36753 km
right ascension of ascending node: 62.0000°
argument of perigee: 76.4564°
revolutions per day: 0.97118139
mean anomaly at epoch: 280.8795°
orbit number at epoch: 6635

The dashed part of the orbit path shows where the satellite is in the earth's shadow,  

DLR